Weather History for Mandan, ND

Change the Weather History Date:

Sunday, May 12, 2013

  Actual Average (KBIS) Record (KBIS)
Temperature  
Mean Temperature 50 °F 54 °F  
Max Temperature 71 °F 67 °F 92 °F (1880)
Min Temperature 30 °F 41 °F 20 °F (1888)
Degree Days  
Heating Degree Days 14 11  
Month to date heating degree days 154  
Since 1 July heating degree days 8309  
Cooling Degree Days 0 0  
Month to date cooling degree days 0  
Year to date cooling degree days 1  
Moisture  
Dew Point 21 °F    
Average Humidity 32    
Maximum Humidity 64    
Minimum Humidity 14    
Precipitation  
Precipitation 0.00 in 0.07 in 0.78 in (2005)
Month to date precipitation 0.81  
Year to date precipitation 3.88  
Snow  
Snow 0.00 in 0.00 in T in (2005)
Month to date snowfall 0.3  
Since 1 July snowfall 51.1  
Snow Depth -    
Sea Level Pressure  
Sea Level Pressure 30.11 in    
Wind  
Wind Speed 8 mph (South)    
Max Wind Speed 16 mph    
Max Gust Speed 23 mph    
Visibility 10 miles    
Events      
T = Trace of Precipitation, MM = Missing Value Source: NWS Daily Summary

Daily Weather History Graph

Daily Weather History Graph

Search for Another Location

Airport:

Trip Planner

Search our weather history database for the weather conditions in past years. The results will help you decide how hot, cold, wet, or windy it might be!

Date:

Astronomy

May. 12, 2013 Rise Set
Actual Time 6:12 AM CDT 9:08 PM CDT
Civil Twilight 5:36 AM CDT 9:43 PM CDT
Nautical Twilight 4:51 AM CDT 10:29 PM CDT
Astronomical Twilight 3:57 AM CDT 11:24 PM CDT
Moon 8:06 AM CDT (5/12) 11:38 PM CDT (5/12)
Length of Visible Light 16h 06m
Length of Day
14h 55m
Waxing Crescent, 7% of the Moon is Illuminated
May 12
Waxing Crescent
May 17
First Quarter
May 24
Full
May 31
Last Quarter
Jun 8
New

Hourly Weather History & Observations

Time (CDT) Temp. Windchill Dew Point Humidity Pressure Visibility Wind Dir Wind Speed Gust Speed Precip Events Conditions
12:15 AM 39.2 °F 34.2 °F 15.8 °F 39% 30.25 in 10.0 mi ESE 6.9 mph - N/A   Clear
12:35 AM 39.2 °F 35.0 °F 15.8 °F 39% 30.25 in 10.0 mi ESE 5.8 mph - N/A   Clear
12:55 AM 39.2 °F 35.0 °F 15.8 °F 39% 30.25 in 10.0 mi ESE 5.8 mph - N/A   Clear
1:15 AM 37.4 °F 32.1 °F 15.8 °F 41% 30.25 in 10.0 mi ESE 6.9 mph - N/A   Clear
1:35 AM 37.4 °F 33.8 °F 15.8 °F 41% 30.24 in 10.0 mi SE 4.6 mph - N/A   Clear
1:55 AM 35.6 °F 32.8 °F 15.8 °F 44% 30.24 in 10.0 mi South 3.5 mph - N/A   Clear
2:15 AM 32.0 °F 27.5 °F 15.8 °F 51% 30.25 in 10.0 mi SW 4.6 mph - N/A   Clear
2:35 AM 32.0 °F 28.7 °F 15.8 °F 51% 30.24 in 10.0 mi South 3.5 mph - N/A   Clear
2:55 AM 35.6 °F 30.7 °F 15.8 °F 44% 30.24 in 10.0 mi South 5.8 mph - N/A   Clear
3:15 AM 33.8 °F 27.0 °F 15.8 °F 48% 30.24 in 10.0 mi South 8.1 mph - N/A   Clear
3:35 AM 33.8 °F 27.0 °F 15.8 °F 48% 30.24 in 10.0 mi South 8.1 mph - N/A   Clear
3:55 AM 35.6 °F 29.2 °F 15.8 °F 44% 30.23 in 10.0 mi South 8.1 mph - N/A   Clear
4:35 AM 32.0 °F 25.6 °F 15.8 °F 51% 30.22 in 10.0 mi South 6.9 mph - N/A   Clear
4:55 AM 32.0 °F 25.6 °F 15.8 °F 51% 30.22 in 10.0 mi South 6.9 mph - N/A   Clear
5:15 AM 32.0 °F 27.5 °F 15.8 °F 51% 30.21 in 10.0 mi South 4.6 mph - N/A   Clear
5:35 AM 32.0 °F 26.4 °F 17.6 °F 55% 30.21 in 10.0 mi South 5.8 mph - N/A   Clear
5:55 AM 32.0 °F 26.4 °F 17.6 °F 55% 30.21 in 10.0 mi SSW 5.8 mph - N/A   Clear
6:15 AM 32.0 °F 26.4 °F 17.6 °F 55% 30.21 in 10.0 mi South 5.8 mph - N/A   Clear
6:35 AM 30.2 °F 23.4 °F 19.4 °F 64% 30.21 in 10.0 mi South 6.9 mph - N/A   Clear
6:55 AM 32.0 °F 25.6 °F 19.4 °F 60% 30.21 in 8.0 mi SSE 6.9 mph - N/A   Clear
7:15 AM 32.0 °F 25.6 °F 21.2 °F 64% 30.20 in 10.0 mi SSE 6.9 mph - N/A   Clear
7:35 AM 35.6 °F 31.7 °F 23.0 °F 60% 30.21 in 10.0 mi South 4.6 mph - N/A   Clear
7:55 AM 37.4 °F 33.8 °F 21.2 °F 52% 30.20 in 10.0 mi South 4.6 mph - N/A   Clear
8:15 AM 39.2 °F 33.0 °F 21.2 °F 49% 30.20 in 10.0 mi South 9.2 mph - N/A   Clear
8:35 AM 42.8 °F 37.5 °F 21.2 °F 42% 30.20 in 10.0 mi South 9.2 mph - N/A   Clear
8:55 AM 44.6 °F 39.2 °F 19.4 °F 37% 30.20 in 10.0 mi South 10.4 mph - N/A   Clear
9:15 AM 46.4 °F 41.5 °F 19.4 °F 34% 30.20 in 10.0 mi South 10.4 mph - N/A   Clear
9:35 AM 48.2 °F - 19.4 °F 32% 30.19 in 10.0 mi South 9.2 mph - N/A   Clear
9:55 AM 51.8 °F - 17.6 °F 26% 30.18 in 10.0 mi SSW 13.8 mph - N/A   Clear
10:15 AM 53.6 °F - 17.6 °F 24% 30.18 in 10.0 mi South 13.8 mph - N/A   Clear
10:35 AM 53.6 °F - 17.6 °F 24% 30.17 in 10.0 mi South 10.4 mph - N/A   Clear
10:55 AM 55.4 °F - 19.4 °F 25% 30.17 in 10.0 mi South 11.5 mph - N/A   Clear
11:15 AM 57.2 °F - 19.4 °F 23% 30.17 in 10.0 mi South 13.8 mph 18.4 mph N/A   Clear
11:35 AM 57.2 °F - 19.4 °F 23% 30.16 in 10.0 mi South 11.5 mph 17.3 mph N/A   Clear
11:55 AM 57.2 °F - 19.4 °F 23% 30.16 in 10.0 mi South 6.9 mph 16.1 mph N/A   Clear
12:15 PM 59.0 °F - 19.4 °F 22% 30.15 in 10.0 mi SSW 12.7 mph 18.4 mph N/A   Clear
12:35 PM 62.6 °F - 19.4 °F 19% 30.14 in 10.0 mi SSE 9.2 mph 18.4 mph N/A   Clear
12:55 PM 60.8 °F - 17.6 °F 19% 30.12 in 10.0 mi SSW 8.1 mph - N/A   Clear
1:15 PM 64.4 °F - 17.6 °F 16% 30.11 in 10.0 mi SSE 12.7 mph 18.4 mph N/A   Clear
1:35 PM 64.4 °F - 17.6 °F 16% 30.10 in 10.0 mi SSW 10.4 mph 19.6 mph N/A   Clear
1:55 PM 64.4 °F - 17.6 °F 16% 30.10 in 10.0 mi South 11.5 mph 16.1 mph N/A   Clear
2:15 PM 64.4 °F - 17.6 °F 16% 30.09 in 10.0 mi South 6.9 mph - N/A   Clear
2:35 PM 66.2 °F - 19.4 °F 17% 30.08 in 10.0 mi SW 9.2 mph - N/A   Clear
2:55 PM 66.2 °F - 19.4 °F 17% 30.07 in 10.0 mi South 9.2 mph 20.7 mph N/A   Clear
3:15 PM 68.0 °F - 19.4 °F 16% 30.07 in 10.0 mi South 12.7 mph - N/A   Clear
3:35 PM 68.0 °F - 19.4 °F 16% 30.06 in 10.0 mi South 11.5 mph 18.4 mph N/A   Clear
3:55 PM 68.0 °F - 19.4 °F 16% 30.05 in 10.0 mi SSW 8.1 mph 17.3 mph N/A   Clear
4:15 PM 69.8 °F - 19.4 °F 15% 30.03 in 10.0 mi SSW 15.0 mph 18.4 mph N/A   Clear
4:35 PM 71.6 °F - 19.4 °F 14% 30.03 in 10.0 mi SSW 10.4 mph 18.4 mph N/A   Clear
4:55 PM 69.8 °F - 19.4 °F 15% 30.02 in 10.0 mi SW 4.6 mph 18.4 mph N/A   Clear
5:15 PM 69.8 °F - 21.2 °F 16% 30.01 in 10.0 mi SSW 9.2 mph - N/A   Clear
5:35 PM 71.6 °F - 21.2 °F 15% 30.01 in 10.0 mi South 10.4 mph 16.1 mph N/A   Clear
5:55 PM 71.6 °F - 23.0 °F 16% 30.00 in 10.0 mi SW 11.5 mph 19.6 mph N/A   Clear
6:15 PM 71.6 °F - 23.0 °F 16% 29.99 in 10.0 mi South 13.8 mph 19.6 mph N/A   Clear
6:35 PM 71.6 °F - 23.0 °F 16% 29.98 in 10.0 mi SSW 13.8 mph - N/A   Clear
6:55 PM 71.6 °F - 24.8 °F 17% 29.97 in 10.0 mi South 9.2 mph - N/A   Clear
7:15 PM 71.6 °F - 24.8 °F 17% 29.96 in 10.0 mi South 11.5 mph - N/A   Clear
7:35 PM 69.8 °F - 26.6 °F 20% 29.96 in 10.0 mi South 9.2 mph - N/A   Clear
7:55 PM 68.0 °F - 26.6 °F 21% 29.95 in 10.0 mi South 8.1 mph - N/A   Clear
8:15 PM 64.4 °F - 30.2 °F 28% 29.95 in 10.0 mi SSE 6.9 mph - N/A   Clear
8:35 PM 64.4 °F - 28.4 °F 26% 29.94 in 10.0 mi SSE 9.2 mph - N/A   Clear
8:55 PM 60.8 °F - 30.2 °F 31% 29.94 in 10.0 mi SE 9.2 mph - N/A   Clear
9:15 PM 59.0 °F - 28.4 °F 31% 29.93 in 10.0 mi SE 10.4 mph - N/A   Clear
9:35 PM 60.8 °F - 28.4 °F 29% 29.93 in 10.0 mi SSE 10.4 mph - N/A   Clear
9:55 PM 60.8 °F - 28.4 °F 29% 29.93 in 10.0 mi SSE 12.7 mph - N/A   Clear
10:15 PM 59.0 °F - 28.4 °F 31% 29.93 in 10.0 mi SSE 11.5 mph - N/A   Clear
10:35 PM 60.8 °F - 26.6 °F 27% 29.92 in 10.0 mi South 16.1 mph - N/A   Clear
10:55 PM 60.8 °F - 26.6 °F 27% 29.92 in 10.0 mi South 12.7 mph - N/A   Scattered Clouds
11:15 PM 60.8 °F - 26.6 °F 27% 29.91 in 10.0 mi South 16.1 mph 23.0 mph N/A   Scattered Clouds
11:35 PM 60.8 °F - 26.6 °F 27% 29.90 in 10.0 mi South 13.8 mph 20.7 mph N/A   Scattered Clouds
11:55 PM 59.0 °F - 26.6 °F 29% 29.89 in 10.0 mi South 13.8 mph - N/A   Partly Cloudy